Hourly Data Report for October 13, 2015

All times are specified in Local Standard Time (LST). Add 1 hour to adjust for Daylight Saving Time where and when it is observed.

BATHURST A
NEW BRUNSWICK

47°37'47.000" N
65°44'20.000" W
58.80 m
8100505
71574
ZBF

Download Data

Hourly Data (October 2015)
Hourly Data Report for October 13, 2015
Temp Definition
°C
Dew Point Temp Definition
°C
Rel Hum Definition
%
Wind Dir Definition
10's deg

Wind Spd Definition
km/h
Visibility Definition
km
Stn Press Definition
kPa
Hmdx Definition


Wind Chill Definition


Weather Definition


TIME
00:00 Legend Double Dagger 10.1 9.8 98 19 6 19.3 100.07     LegendNANA
01:00 Legend Double Dagger 10.4 10.0 97 20 4 16.1 100.07     LegendNANA
02:00 Legend Double Dagger 9.9 9.5 97 20 6 16.1 100.04     Clear
03:00 Legend Double Dagger 9.2 8.9 98 19 4 16.1 99.97     LegendNANA
04:00 Legend Double Dagger 8.9 8.6 98 19 7 19.3 99.98     LegendNANA
05:00 Legend Double Dagger 9.3 8.9 97 20 6 19.3 99.96     Cloudy
06:00 Legend Double Dagger 9.4 9.0 97 20 11 19.3 99.98     LegendNANA
07:00 Legend Double Dagger 9.8 8.9 94 20 14 11.3 99.94     LegendNANA
08:00 Legend Double Dagger 10.4 9.3 93 18 12 11.3 99.94     Cloudy
09:00 Legend Double Dagger 11.4 9.5 88 19 17 19.3 99.93     LegendNANA
10:00 Legend Double Dagger 12.4 10.0 85 18 10 16.1 99.88     LegendNANA
11:00 Legend Double Dagger 13.7 10.0 78 19 15 19.3 99.82     Cloudy
12:00 Legend Double Dagger 14.8 9.9 72 16 14 24.1 99.72     LegendNANA
13:00 Legend Double Dagger 16.4 8.7 60 19 13 24.1 99.60     LegendNANA
14:00 Legend Double Dagger 16.5 11.1 70 17 10 24.1 99.51     Cloudy
15:00 Legend Double Dagger 15.6 12.4 81 14 13 19.3 99.42     Rain Showers
16:00 Legend Double Dagger 15.6 12.9 84 15 8 19.3 99.33     LegendNANA
17:00 Legend Double Dagger 14.7 13.8 94 10 8 6.4 99.24     Moderate Rain Showers,Fog
18:00 Legend Double Dagger 14.0 13.7 98 10 7 8.1 99.13     Rain,Rain Showers,Fog
19:00 Legend Double Dagger 13.8 13.5 98 35 4 6.4 99.07     Moderate Rain,Fog
20:00 Legend Double Dagger 13.5 13.2 98 2 3 12.9 98.99     Rain
21:00 Legend Double Dagger 13.3 13.0 98 3 7 4.8 98.93     Drizzle,Fog
22:00 Legend Double Dagger 12.6 12.3 98 8 3 19.3 98.93     LegendNANA
23:00 Legend Double Dagger 12.4 12.3 99 14 3 0.8 98.86     Fog

Notes on Data Quality.

Legend

  • E = Estimated
  • M = Missing
  • NA = Not Available
  • ‡ = Partner data that is not subject to review by the National Climate Archives
Date modified: